Location: Unspecified
(0.0000°N, 0.0000°E)
Time: 07:34:09
(UTC+00:00)

S-56A Canister/Altair - Pass Details

Date: 03 June 2024
Orbit: 637 x 2489 km, 38.9° (Epoch: 22 June)

Event Time Altitude Azimuth Distance (km) Brightness Sun altitude
Rises 00:07:18 0° 241° (WSW) 4,989 - -67.5°
Reaches altitude 10° 00:10:19 10° 245° (WSW) 4,217 - -67.5°
Maximum altitude 00:22:02 56° 320° (NW) 2,612 - -66.9°
Exits shadow 00:30:46 28° 25° (NNE) 3,829 11.1 -66.3°
Drops below altitude 10° 00:36:38 10° 35° (NE) 5,139 11.9 -65.8°
Sets 00:40:47 0° 40° (NE) 6,112 12.5 -65.4°
